Location: Appeville
(49.3218°N, 1.3427°W)
Time: 05:54:57
(UTC+00:00)

Cosmos 2026 Rocket - Pass Details

Date: 08 December 2019
Orbit: 940 x 1000 km, 82.9° (Epoch: 19 January)

Event Time Altitude Azimuth Distance (km) Brightness Sun altitude
Rises 05:17:56 0° 351° (N) 3,635 6.8 -23.2°
Reaches altitude 10° 05:20:27 10° 354° (N) 2,692 6.2 -22.8°
Maximum altitude 05:26:36 70° 79° (ENE) 1,022 4.2 -21.8°
Drops below altitude 10° 05:32:48 10° 163° (SSE) 2,714 6.7 -20.9°
Sets 05:35:20 0° 165° (SSE) 3,666 7.4 -20.4°
